Location: Newark
(47.7394°N, 8.0008°E)
Time: 06:29:54
(UTC+00:00)

N. Korean satellite - Pass Details

Date: 22 December 2019
Orbit: 454 x 507 km, 97.2° (Epoch: 27 January)

Event Time Altitude Azimuth Distance (km) Brightness Sun altitude
Rises 06:07:57 0° 2° (N) 2,510 10.0 -10.5°
Reaches altitude 10° 06:10:12 10° 351° (N) 1,621 8.9 -10.2°
Maximum altitude 06:13:11 27° 291° (WNW) 910 7.4 -9.7°
Drops below altitude 10° 06:16:08 10° 232° (SW) 1,596 8.9 -9.3°
Sets 06:18:19 0° 220° (SW) 2,461 10.0 -9.0°
